AI5KP-13 Weather Reports


Display with metric or nautical units.
time (UTC)temp
F
wind
direction
speed
MPH
gust
MPH
rain 1hr
in
rain 24hr
in
rain mn
in
humidity
%
barometer
mb
20260505211743 59 329 5.0 7.0 0.00 0.01 0.01 89 1006.3
20260505211241 59 7 4.0 6.0 0.00 0.01 0.01 89 1005.9
20260505210737 59 336 6.0 8.0 0.00 0.01 0.01 89 1005.7
20260505210234 60 29 5.0 7.0 0.00 0.01 0.01 88 1005.6
20260505205732 60 308 4.0 4.0 0.00 0.01 0.01 87 1005.5
20260505205230 61 346 6.0 7.0 0.00 0.01 0.01 87 1005.3
20260505204726 61 350 6.0 8.0 0.00 0.01 0.01 86 1005.2
20260505204224 61 15 5.0 7.0 0.00 0.01 0.01 86 1005.2
20260505203721 62 9 3.0 4.0 0.00 0.01 0.01 85 1005.7
20260505203218 62 47 0.0 1.0 0.00 0.01 0.01 85 1005.5
20260505202713 62 44 1.0 2.0 0.00 0.01 0.01 85 1005.4
20260505202210 61 15 2.0 3.0 0.00 0.01 0.01 86 1005.5
20260505201706 61 309 2.0 2.0 0.00 0.01 0.01 87 1005.7
20260505201204 61 23 4.0 7.0 0.00 0.01 0.01 88 1005.5
20260505200702 60 350 5.0 9.0 0.00 0.01 0.01 89 1005.6
20260505200159 61 42 5.0 6.0 0.00 0.01 0.01 88 1005.6
20260505195654 61 350 2.0 2.0 0.00 0.01 0.01 87 1005.7
20260505195152 62 24 7.0 9.0 0.00 0.01 0.01 86 1005.6
20260505194649 62 22 7.0 10.0 0.00 0.01 0.01 87 1005.6
20260505194145 62 351 6.0 9.0 0.00 0.01 0.01 87 1005.4
20260505193642 62 28 11.0 14.0 0.00 0.01 0.01 87 1005.4
20260505193139 62 355 11.0 14.0 0.00 0.01 0.01 88 1005.5
20260505192638 63 339 10.0 13.0 0.00 0.01 0.01 88 1005.0
20260505192134 64 342 8.0 10.0 0.00 0.01 0.01 87 1004.8
20260505191633 68 7 7.0 10.0 0.00 0.01 0.01 85 1003.9
20260505191131 75 190 7.0 9.0 0.00 0.01 0.01 77 1004.0
20260505190626 74 157 6.0 8.0 0.00 0.01 0.01 76 1004.1
20260505190121 73 166 4.0 4.0 0.00 0.01 0.01 78 1004.5
20260505185618 73 211 2.0 2.0 0.00 0.01 0.01 77 1004.2
20260505185114 72 184 5.0 6.0 0.00 0.01 0.01 81 1004.3
20260505184611 74 117 2.0 2.0 0.00 0.01 0.01 78 1004.4
20260505184108 75 105 5.0 8.0 0.00 0.01 0.01 77 1004.2
20260505183604 74 205 3.0 6.0 0.00 0.01 0.01 80 1004.2
20260505183103 74 109 9.0 10.0 0.00 0.01 0.01 77 1004.3
20260505182558 74 175 7.0 10.0 0.00 0.01 0.01 78 1004.2
20260505182055 73 93 5.0 6.0 0.00 0.01 0.01 78 1004.6
20260505181553 73 185 7.0 10.0 0.00 0.01 0.01 80 1004.6
20260505181050 72 161 10.0 11.0 0.00 0.01 0.01 81 1004.5
20260505180545 73 203 1.0 2.0 0.00 0.01 0.01 80 1004.6
20260505180044 73 172 2.0 2.0 0.00 0.01 0.01 79 1004.5
20260505175543 73 136 3.0 3.0 0.00 0.01 0.01 80 1004.5
20260505175040 72 197 2.0 3.0 0.00 0.01 0.01 81 1004.5
20260505174537 71 174 5.0 8.0 0.00 0.01 0.01 82 1004.6
20260505174033 71 183 7.0 10.0 0.00 0.01 0.01 81 1004.3
20260505173530 71 125 2.0 2.0 0.00 0.01 0.01 81 1004.2
20260505173027 71 166 3.0 4.0 0.00 0.01 0.01 82 1004.6
20260505172525 71 154 3.0 4.0 0.00 0.01 0.01 82 1004.6
20260505172021 72 126 3.0 6.0 0.00 0.01 0.01 80 1004.5
20260505171516 72 135 6.0 7.0 0.00 0.01 0.01 80 1004.5
20260505171013 72 159 9.0 13.0 0.00 0.01 0.01 80 1004.5
20260505170505 72 137 5.0 7.0 0.00 0.01 0.01 79 1004.6
20260505170001 73 129 6.0 9.0 0.00 0.01 0.01 77 1004.5
20260505165456 73 194 4.0 8.0 0.00 0.01 0.01 78 1004.5
20260505164952 72 174 2.0 3.0 0.00 0.01 0.01 79 1004.5
20260505164448 72 161 2.0 4.0 0.00 0.01 0.01 81 1004.8
20260505163946 71 177 4.0 6.0 0.00 0.01 0.01 80 1004.7
20260505163444 71 135 5.0 6.0 0.00 0.01 0.01 80 1004.8
20260505162944 71 134 5.0 7.0 0.00 0.01 0.01 81 1004.4
20260505162439 71 155 2.0 3.0 0.00 0.01 0.01 81 1004.5
20260505161936 72 213 7.0 8.0 0.00 0.01 0.01 79 1004.5
20260505161433 72 159 3.0 7.0 0.00 0.01 0.01 79 1004.5
20260505160930 73 133 5.0 7.0 0.00 0.01 0.01 78 1004.4
20260505160429 72 148 4.0 4.0 0.00 0.01 0.01 80 1004.2
20260505152904 70 99 5.0 10.0 0.00 0.01 0.01 81 1004.0
20260505152402 70 191 7.0 14.0 0.00 0.01 0.01 81 1003.9
20260505151901 70 173 6.0 8.0 0.00 0.01 0.01 81 1003.9
20260505151358 69 183 4.0 6.0 0.00 0.01 0.01 83 1004.0
20260505150849 68 104 8.0 9.0 0.00 0.01 0.01 84 1003.9
20260505150347 68 163 4.0 6.0 0.00 0.01 0.01 84 1004.1
20260505140317 66 145 2.0 2.0 0.00 0.01 0.01 88 1004.7
20260505130240 64 166 1.0 2.0 0.00 0.01 0.01 91 1004.9
20260505124731 63 144 2.0 3.0 0.00 0.01 0.01 91 1004.9
20260505124227 63 161 0.0 0.0 0.00 0.01 0.01 92 1004.9
20260505123722 63 166 1.0 1.0 0.00 0.01 0.01 92 1005.1
20260505123220 62 173 2.0 3.0 0.00 0.01 0.01 92 1004.9
20260505122716 62 118 2.0 2.0 0.00 0.01 0.01 92 1004.8
20260505122214 62 137 0.0 1.0 0.00 0.01 0.01 92 1005.0
20260505121710 62 127 3.0 3.0 0.00 0.01 0.01 92 1005.0
20260505121207 62 134 5.0 6.0 0.00 0.01 0.01 92 1005.0
20260505120703 62 97 5.0 7.0 0.00 0.01 0.01 92 1004.9
20260505120159 62 112 4.0 6.0 0.00 0.01 0.01 92 1005.0
20260505115652 62 84 2.0 2.0 0.00 0.01 0.01 92 1005.0
20260505115151 62 97 4.0 6.0 0.00 0.01 0.01 92 1005.0
20260505114648 62 147 1.0 2.0 0.00 0.01 0.01 93 1004.8
20260505114144 62 53 4.0 6.0 0.00 0.01 0.01 93 1004.9
20260505113640 62 128 4.0 4.0 0.00 0.01 0.01 93 1004.8
20260505113137 62 192 3.0 7.0 0.00 0.01 0.01 93 1004.8
20260505112633 62 113 3.0 3.0 0.00 0.01 0.01 93 1004.9
20260505112132 62 148 4.0 4.0 0.00 0.01 0.01 93 1004.9
20260505111631 62 113 1.0 2.0 0.00 0.01 0.01 93 1004.8
20260505111127 62 141 4.0 6.0 0.00 0.01 0.01 93 1004.8
20260505110624 62 72 3.0 4.0 0.00 0.01 0.01 93 1004.8
20260505110121 62 137 0.0 1.0 0.07 0.01 0.01 93 1004.6
20260505102056 62 92 4.0 8.0 0.00 0.00 0.00 94 1004.3
20260505101555 62 74 2.0 2.0 0.00 0.00 0.00 94 1004.5
20260505101051 62 37 1.0 1.0 0.00 0.00 0.00 94 1004.8
20260505100548 62 92 2.0 3.0 0.00 0.00 0.00 94 1004.9
20260505100045 62 59 1.0 2.0 0.00 0.00 0.00 94 1004.8
20260505095541 62 77 1.0 2.0 0.00 0.00 0.00 94 1004.8
20260505095037 62 39 2.0 2.0 0.00 0.00 0.00 94 1004.9
20260505094534 62 98 4.0 4.0 0.00 0.00 0.00 94 1004.7
20260505094030 62 133 2.0 3.0 0.00 0.00 0.00 94 1005.0
20260505093527 62 135 0.0 0.0 0.00 0.00 0.00 94 1005.0
20260505093024 62 137 1.0 1.0 0.00 0.00 0.00 94 1005.1
20260505092521 62 94 3.0 3.0 0.00 0.00 0.00 93 1005.0
20260505092020 62 31 2.0 4.0 0.00 0.00 0.00 93 1005.1
20260505091516 62 48 2.0 3.0 0.00 0.00 0.00 93 1005.0
20260505091014 62 89 3.0 3.0 0.00 0.00 0.00 93 1005.1
20260505090512 62 125 1.0 1.0 0.00 0.00 0.00 93 1004.9
20260505090010 62 57 2.0 2.0 0.00 0.00 0.00 93 1004.9
20260505085508 62 21 3.0 3.0 0.00 0.00 0.00 93 1004.8
20260505085005 62 85 1.0 2.0 0.00 0.00 0.00 92 1004.8
20260505084504 62 90 4.0 6.0 0.00 0.00 0.00 92 1004.8
20260505084001 63 48 2.0 3.0 0.00 0.00 0.00 91 1004.9
20260505083458 63 343 6.0 8.0 0.00 0.00 0.00 90 1005.1
20260505082954 63 348 6.0 9.0 0.00 0.00 0.00 89 1005.0
20260505082450 63 35 5.0 6.0 0.00 0.00 0.00 88 1004.9
20260505081947 64 39 2.0 4.0 0.00 0.00 0.00 87 1005.0
20260505081444 65 309 4.0 6.0 0.00 0.00 0.00 85 1005.4
20260505080940 65 329 7.0 8.0 0.00 0.00 0.00 84 1005.3
20260505080436 65 339 7.0 10.0 0.00 0.00 0.00 82 1004.1
20260505075932 64 1 11.0 13.0 0.00 0.00 0.00 84 1003.6
20260505075429 64 303 11.0 16.0 0.00 0.00 0.00 85 1003.2
20260505074927 64 321 7.0 9.0 0.00 0.00 0.00 83 1003.5
20260505074424 64 303 4.0 6.0 0.00 0.00 0.00 84 1002.9
20260505073921 64 284 1.0 2.0 0.00 0.00 0.00 83 1002.3
20260505073419 64 275 3.0 4.0 0.00 0.00 0.00 83 1002.5
20260505072916 64 128 5.0 7.0 0.00 0.00 0.00 82 1001.9
20260505072411 65 136 2.0 3.0 0.00 0.00 0.00 81 1002.5
20260505071908 65 158 2.0 3.0 0.00 0.00 0.00 80 1003.0
20260505071404 65 146 6.0 10.0 0.00 0.00 0.00 79 1003.0
20260505070902 66 123 7.0 8.0 0.00 0.00 0.00 80 1003.1
20260505070358 66 110 5.0 8.0 0.00 0.00 0.00 78 1003.7
20260505065854 66 132 3.0 3.0 0.00 0.00 0.00 78 1004.2
20260505065351 66 11 6.0 8.0 0.00 0.00 0.00 77 1004.6
20260505064848 67 266 1.0 2.0 0.00 0.00 0.00 75 1005.0
20260505064345 67 163 0.0 1.0 0.00 0.00 0.00 73 1004.6
20260505063843 67 198 2.0 2.0 0.00 0.00 0.00 75 1004.5
20260505063339 67 170 6.0 8.0 0.00 0.00 0.00 74 1004.5
20260505062836 66 159 3.0 4.0 0.00 0.00 0.00 77 1004.3
20260505062333 66 165 5.0 7.0 0.00 0.00 0.00 75 1004.3
20260505061830 66 167 2.0 3.0 0.00 0.00 0.00 74 1004.5
20260505061328 67 147 2.0 2.0 0.00 0.00 0.00 74 1005.0
20260505060825 67 147 4.0 6.0 0.00 0.00 0.00 72 1004.9
20260505060322 68 135 2.0 2.0 0.00 0.00 0.00 70 1004.8
20260505055817 68 251 2.0 2.0 0.00 0.00 0.00 69 1005.2
20260505055314 68 104 2.0 3.0 0.00 0.00 0.00 70 1004.4
20260505054812 67 174 0.0 1.0 0.00 0.00 0.00 70 1004.8
20260505054308 67 238 1.0 1.0 0.00 0.00 0.00 70 1005.0
20260505053807 68 188 0.0 0.0 0.00 0.00 0.00 70 1005.0
20260505053303 68 152 2.0 3.0 0.00 0.00 0.00 69 1004.9
20260505052800 68 170 1.0 2.0 0.00 0.00 0.00 69 1005.1
20260505052257 67 144 6.0 10.0 0.00 0.00 0.00 70 1004.9
20260505051754 67 123 2.0 2.0 0.00 0.00 0.00 70 1004.9
20260505051252 66 169 2.0 3.0 0.00 0.00 0.00 73 1004.9
20260505050750 66 172 1.0 1.0 0.00 0.00 0.00 73 1004.8
20260505050248 66 110 3.0 4.0 0.00 0.00 0.00 73 1005.2
20260505041718 64 155 0.0 0.0 0.00 0.00 0.00 76 1005.8
20260505041215 64 166 2.0 3.0 0.00 0.00 0.00 76 1006.0
20260505040712 64 144 1.0 1.0 0.00 0.00 0.00 77 1006.0
20260505040209 65 145 0.0 0.0 0.00 0.00 0.00 76 1006.0
20260505035706 65 132 1.0 1.0 0.00 0.00 0.00 76 1006.1
20260505035202 65 167 0.0 0.0 0.00 0.00 0.00 75 1006.2
20260505034659 65 168 0.0 1.0 0.00 0.00 0.00 76 1006.3
20260505034156 66 151 2.0 2.0 0.00 0.00 0.00 75 1006.2
20260505033652 66 145 1.0 2.0 0.00 0.00 0.00 74 1006.1
20260505033150 67 148 0.0 1.0 0.00 0.00 0.00 74 1006.1
20260505032648 67 140 3.0 4.0 0.00 0.00 0.00 71 1006.2
20260505032144 68 125 2.0 3.0 0.00 0.00 0.00 70 1006.3
20260505031642 68 187 1.0 2.0 0.00 0.00 0.00 69 1006.6
20260505031138 68 161 2.0 2.0 0.00 0.00 0.00 68 1006.3
20260505030635 68 178 1.0 1.0 0.00 0.00 0.00 68 1006.3
20260505030131 69 180 1.0 2.0 0.00 0.00 0.00 68 1006.5
20260505025627 68 194 1.0 1.0 0.00 0.00 0.00 69 1006.6
20260505025126 69 136 3.0 4.0 0.00 0.00 0.00 68 1006.5
20260505024623 69 129 4.0 4.0 0.00 0.00 0.00 68 1006.2
20260505024120 69 187 1.0 1.0 0.00 0.00 0.00 69 1006.5
20260505023617 69 199 4.0 4.0 0.00 0.00 0.00 68 1006.3
20260505023115 68 140 3.0 4.0 0.00 0.00 0.00 69 1006.5
20260505022612 69 189 2.0 2.0 0.00 0.00 0.00 69 1006.2
20260505022108 69 162 2.0 2.0 0.00 0.00 0.00 69 1006.2
20260505021605 69 176 2.0 2.0 0.00 0.00 0.00 68 1006.2
20260505021102 69 139 2.0 3.0 0.00 0.00 0.00 68 1006.0
20260505020602 69 209 2.0 2.0 0.00 0.00 0.00 67 1005.9
20260505020059 69 140 1.0 1.0 0.00 0.00 0.00 67 1005.9
20260505015556 69 112 2.0 3.0 0.00 0.00 0.00 67 1006.0
20260505015053 70 163 1.0 2.0 0.00 0.00 0.00 67 1005.9
20260505014549 70 165 1.0 1.0 0.00 0.00 0.00 66 1005.9
20260505014047 70 154 2.0 2.0 0.00 0.00 0.00 66 1005.9
20260505013544 70 182 0.0 1.0 0.00 0.00 0.00 67 1005.8
20260505013041 70 182 0.0 0.0 0.00 0.00 0.00 66 1005.8
20260505012539 70 184 1.0 1.0 0.00 0.00 0.00 66 1005.6
20260505012036 70 172 2.0 2.0 0.00 0.00 0.00 66 1005.4
20260505011531 70 193 2.0 3.0 0.00 0.00 0.00 66 1005.4
20260505011029 71 202 1.0 1.0 0.00 0.00 0.00 65 1005.3
20260505010524 71 149 1.0 1.0 0.00 0.00 0.00 64 1005.1
20260505010021 71 194 1.0 1.0 0.00 0.00 0.00 63 1005.2
20260505005517 71 193 1.0 1.0 0.00 0.00 0.00 63 1005.1
20260505005015 71 150 2.0 3.0 0.00 0.00 0.00 63 1005.1
20260505004512 72 200 3.0 6.0 0.00 0.00 0.00 63 1005.1
20260505004008 72 204 3.0 4.0 0.00 0.00 0.00 62 1005.1
20260505003506 72 172 3.0 4.0 0.00 0.00 0.00 62 1005.1
20260505003002 72 171 2.0 3.0 0.00 0.00 0.00 61 1005.3
20260505002458 72 193 4.0 6.0 0.00 0.00 0.00 62 1005.1
20260505001956 73 177 3.0 4.0 0.00 0.00 0.00 61 1005.2
20260505001454 73 195 4.0 4.0 0.00 0.00 0.00 62 1005.2
20260505000950 73 190 1.0 2.0 0.00 0.00 0.00 63 1005.2
20260505000448 73 219 1.0 1.0 0.00 0.00 0.00 61 1005.2
20260504235945 73 193 2.0 3.0 0.00 0.00 0.00 60 1005.4
20260504235442 73 163 1.0 2.0 0.00 0.00 0.00 59 1005.2
20260504234939 74 147 2.0 2.0 0.00 0.00 0.00 58 1005.1
20260504234436 74 187 0.0 1.0 0.00 0.00 0.00 59 1005.2
20260504233932 74 195 5.0 6.0 0.00 0.00 0.00 58 1005.1
20260504233428 74 164 3.0 3.0 0.00 0.00 0.00 58 1005.2
20260504232925 74 170 5.0 9.0 0.00 0.00 0.00 57 1005.3
20260504232422 74 186 1.0 3.0 0.00 0.00 0.00 58 1005.4
20260504231919 74 159 3.0 4.0 0.00 0.00 0.00 58 1005.4
20260504231415 75 201 9.0 9.0 0.00 0.00 0.00 58 1005.4
20260504230912 75 125 4.0 10.0 0.00 0.00 0.00 56 1005.4
20260504230409 75 191 3.0 4.0 0.00 0.00 0.00 58 1005.2
20260504225908 75 187 4.0 7.0 0.00 0.00 0.00 56 1005.3
20260504225404 75 145 8.0 11.0 0.00 0.00 0.00 58 1005.3
20260504224902 75 186 14.0 16.0 0.00 0.00 0.00 55 1005.4
20260504224358 76 206 9.0 10.0 0.00 0.00 0.00 55 1005.4
20260504223855 76 187 10.0 14.0 0.00 0.00 0.00 54 1005.1
20260504223350 75 149 14.0 18.0 0.00 0.00 0.00 54 1005.1
20260504222847 76 197 9.0 16.0 0.00 0.00 0.00 54 1005.2
20260504222344 76 175 5.0 7.0 0.00 0.00 0.00 54 1005.5
20260504221843 75 158 11.0 17.0 0.00 0.00 0.00 55 1005.4
20260504221339 76 204 7.0 9.0 0.00 0.00 0.00 55 1005.2
20260504220836 76 185 13.0 16.0 0.00 0.00 0.00 53 1005.2
20260504220333 77 146 15.0 22.0 0.00 0.00 0.00 53 1005.3
20260504215830 77 148 4.0 7.0 0.00 0.00 0.00 52 1005.2
20260504215326 77 105 8.0 13.0 0.00 0.00 0.00 53 1005.5
20260504214822 77 202 8.0 16.0 0.00 0.00 0.00 52 1005.3
20260504214320 77 103 6.0 14.0 0.00 0.00 0.00 53 1005.2
20260504213816 78 121 8.0 13.0 0.00 0.00 0.00 52 1005.4
20260504213312 78 108 7.0 9.0 0.00 0.00 0.00 51 1005.5
20260504212810 77 172 10.0 13.0 0.00 0.00 0.00 52 1005.5
20260504212306 78 127 7.0 9.0 0.00 0.00 0.00 51 1005.8